Location: Lecco
(45.8566°N, 9.3977°E)
Time: 04:57:30
(UTC+02:00)

Transit 4A - Pass Details

Date: 14 August 2020
Orbit: 863 x 982 km, 66.8° (Epoch: 23 September)

Event Time Altitude Azimuth Distance (km) Brightness Sun altitude
Rises 08:04:28 0° 157° (SSE) 3,479 11.2 16.6°
Reaches altitude 10° 08:08:03 10° 134° (SE) 2,568 11.0 17.2°
Maximum altitude 08:11:13 15° 102° (ESE) 2,259 12.0 17.8°
Drops below altitude 10° 08:14:26 10° 69° (ENE) 2,622 11.9 18.3°
Sets 08:18:09 0° 48° (NE) 3,598 11.7 19.0°
